星链-30198 (STARLINK-30198 )

导读

STARLINK-30198是美国太空探索技术公司星链星座的一员,星链旨在构建全球卫星互联网。该卫星于2023年7月10日发射,运行在近地轨道,为全球偏远地区、海上、空中等网络覆盖薄弱区域提供高速互联网接入服务,助力全球互联互通,是星链大规模组网过程中入轨的卫星之一。

Basic Information
目录编号:
57290
目录名称:
STARLINK-30198
国际标识:
2023-096A
轨道中心:
EARTH
卫星名称:
星链-30198
卫星全名:
星链-30198 (STARLINK-30198 )
卫星状态:
在轨 (已飞行1152 天)
发射日期:
2023-07-10 UTC
国别 :
美国 (US)
星等 :
--
Orbit Information
数据来源 国际轨道数据
星历时间: 2026-09-03T13:17:08+0800
22小时前
查看轨道信息
半长轴: 6850.491km
偏心率: 0.0012282
轨道倾角: 42.985°
近地点辐角 28.868°
升交点赤经 304.217°
平近点角 331.285°
近地点: 463.94km
远地点: 480.768km
周期: 94.046分钟
每日圈数: 15.31159
Detailed Information
固有亮度:
5
最大亮度:
0.3
卫星平台:
Starlink v2.0 mini
覆盖范围:
全球
运营商:
太空探索技术公司
运营商所在国:
美国
制造商(研发单位):
太空探索技术公司
制造商所在国:
美国
使用方式:
暂无
Satellite Introduction
星链(Starlink)计划是由太空探索技术公司(SpaceX)提出的一个巨型低轨卫星互联网星座项目,计划在2019年至2024年间在太空搭建由约1.2万颗卫星组成的“星链”网络,其中1584颗将部署在地球上空550千米处的近地轨道,并从2020年开始工作。该卫星仍在工作。
2D Orbit Map
3D Orbit Map
Orbit Altitude Analysis Chart
Orbit Inclination Analysis Chart
Orbit Comprehensive Analysis Chart
View Comprehensive Chart
Conjunction Data List
Event ID Objects TCA Miss Dist (km) Collision Risk Probability Collision Risk Index (CRI) Action
CDM_260903-162705-729005-888421
2026-09-03T
16:27:24+0000
0.923 km
远距离
2.614806E-5 中风险 0.63
CDM_260904-014305-729006-916821
2026-09-04T
01:43:03+0000
1.462 km
极远距离
6.012684E-6 低风险 0.51
CDM_260905-023505-729006-956121
2026-09-05T
02:35:46+0000
1.554 km
极远距离
3.698349E-6 低风险 0.46
CDM_260903-181205-729006-810221
2026-09-03T
18:12:19+0000
1.760 km
极远距离
3.475448E-6 低风险 0.46
CDM_260831-081305-729006-866221
2026-08-31T
08:13:30+0000
2.043 km
极远距离
2.624766E-6 低风险 0.43
CDM_260904-030205-729006-950121
2026-09-04T
03:02:58+0000
2.077 km
极远距离
1.739113E-6 低风险 0.4
CDM_260902-132104-855605-729021
2026-09-02T
13:21:34+0000
2.117 km
极远距离
1.724476E-6 低风险 0.4
CDM_260905-082405-729005-818821
2026-09-05T
08:24:46+0000
2.027 km
极远距离
1.72239E-6 低风险 0.4
CDM_260904-102405-729005-852021
2026-09-04T
10:24:18+0000
2.267 km
极远距离
1.593254E-6 低风险 0.39
CDM_260905-115505-729006-975321
2026-09-05T
11:55:48+0000
2.857 km
极远距离
1.386478E-6 低风险 0.38